This is the latest recevied weather packets stored in our database for station/object 7L2IWN-13. If no packets are shown the sender has not sent any weather packets the latest 10 day(s).
| Time | Temp. | Humidity | Pressure | Rain* | Wind** | Luminosity | Snow |
|---|---|---|---|---|---|---|---|
| 1777029021 | 13.33° C | 80% | 1015 hPa | 0 mm | - | - | - |
| 1777028301 | 13.89° C | 77% | 1014.8 hPa | 0 mm | - | - | - |
| 1777027580 | 13.89° C | 77% | 1014.8 hPa | 0 mm | - | - | - |
| 1777026860 | 13.89° C | 75% | 1014.3 hPa | 0 mm | - | - | - |
| 1777026143 | 14.44° C | 73% | 1014.1 hPa | 0 mm | - | - | - |
| 1777025421 | 14.44° C | 73% | 1014 hPa | 0 mm | - | - | - |
| 1777024701 | 15° C | 69% | 1013.5 hPa | 0 mm | - | - | - |
| 1777023980 | 15° C | 68% | 1013.2 hPa | 0 mm | - | - | - |
| 1777023260 | 16.67° C | 66% | 1012.9 hPa | 0 mm | - | - | - |
| 1777022542 | 17.22° C | 56% | 1012.7 hPa | 0 mm | - | - | - |
| 1777021820 | 17.22° C | 51% | 1012.5 hPa | 0 mm | - | - | - |
| 1777021100 | 17.78° C | 49% | 1012.4 hPa | 0 mm | - | - | - |
| 1777019661 | 18.33° C | 38% | 1012.2 hPa | 0 mm | - | - | - |
| 1777018941 | 18.89° C | 37% | 1011.7 hPa | 0 mm | - | - | - |
| 1777018221 | 19.44° C | 37% | 1011.6 hPa | 0 mm | - | - | - |
| 1777016780 | 19.44° C | 36% | 1011.1 hPa | 0 mm | - | - | - |
| 1777016061 | 20° C | 36% | 1011.1 hPa | 0 mm | - | - | - |
| 1777015340 | 20° C | 34% | 1010.9 hPa | 0 mm | - | - | - |
| 1777014620 | 20.56° C | 33% | 1010.5 hPa | 0 mm | - | - | - |
| 1777013902 | 20.56° C | 32% | 1010.6 hPa | 0 mm | - | - | - |
| 1777013181 | 21.11° C | 34% | 1010.6 hPa | 0 mm | - | - | - |
| 1777012460 | 21.11° C | 46% | 1010.3 hPa | 0 mm | - | - | - |
| 1777011742 | 21.11° C | 49% | 1010.3 hPa | 0 mm | - | - | - |
| 1777011021 | 21.11° C | 48% | 1010.1 hPa | 0 mm | - | - | - |
| 1777010301 | 21.67° C | 47% | 1010 hPa | 0 mm | - | - | - |
* Rain latest hour (hover to see other rain measurements)
** Current wind speed in m/s (hover to see current wind gust speed)